Weather reports worldwide

Advertisment
Moses Lake, wa, United States of America (2074711): temperature & dewpoint: 15.07.2019 17:00:00 - 21.07.2019 17:00:00 (PDT)Moses Lake, wa, United States of America (2074711): wind speed & gusts: 15.07.2019 17:00:00 - 21.07.2019 17:00:00 (PDT)Moses Lake, wa, United States of America (2074711): wind direction: 15.07.2019 17:00:00 - 21.07.2019 17:00:00 (PDT)Moses Lake, wa, United States of America (2074711): reduced air pressure: 15.07.2019 17:00:00 - 21.07.2019 17:00:00 (PDT)Moses Lake, wa, United States of America (2074711): visibility: 15.07.2019 17:00:00 - 21.07.2019 17:00:00 (PDT)
Date & Time tt [°C] td [°C] ff [km/h] ff [kn] fx [km/h] fx [kn] dd ppp [hPa] vv [km]
21.07.2019 17:00:00 33,9 1,7 0 0 - - N 1013,2 16
21.07.2019 16:00:00 33,3 2,8 13 7 - - SE 1014,0 16
21.07.2019 15:00:00 32,8 2,2 15 8 - - N 1014,8 16
21.07.2019 14:00:00 31,7 3,3 11 6 - - E 1015,3 16
21.07.2019 13:00:00 31,7 4,4 22 12 - - NNE 1015,7 16
21.07.2019 12:00:00 30,0 5,0 9 5 - - - 1016,4 16
21.07.2019 11:00:00 28,9 5,6 11 6 - - - 1016,7 16
21.07.2019 10:00:00 26,7 6,1 16 9 - - E 1017,2 16
21.07.2019 09:00:00 24,4 7,2 18 10 - - NNE 1017,5 16
21.07.2019 08:00:00 21,7 7,2 16 9 - - NNE 1017,5 16
21.07.2019 07:00:00 18,3 6,7 15 8 - - N 1017,3 16
21.07.2019 06:00:00 15,0 6,1 15 8 - - N 1017,0 16
21.07.2019 05:00:00 15,6 5,6 16 9 - - N 1016,8 16
21.07.2019 04:00:00 15,0 5,6 13 7 - - N 1016,7 16
21.07.2019 03:00:00 16,1 5,0 13 7 - - N 1016,7 16
21.07.2019 02:00:00 17,2 5,0 11 6 - - NNE 1016,7 16
21.07.2019 01:00:00 18,9 5,0 16 9 - - NE 1016,7 16
21.07.2019 00:00:00 19,4 4,4 11 6 - - NE 1016,5 16
20.07.2019 23:00:00 20,0 4,4 8 4 - - NE 1016,4 16
20.07.2019 22:00:00 21,7 3,9 13 7 - - NW 1016,1 16
20.07.2019 21:00:00 24,4 2,8 11 6 - - WNW 1015,8 16
20.07.2019 20:00:00 27,8 2,2 15 8 - - W 1015,6 16
20.07.2019 19:00:00 28,9 2,2 16 9 - - SW 1015,7 16
20.07.2019 18:00:00 29,4 2,2 15 8 - - SW 1016,2 16
20.07.2019 17:00:00 30,0 2,2 8 4 - - WNW 1016,6 16
20.07.2019 16:00:00 28,9 2,2 16 9 - - SSW 1016,8 16
20.07.2019 15:00:00 28,3 1,7 5 3 - - SW 1017,1 16
20.07.2019 14:00:00 28,9 2,2 16 9 - - WSW 1017,2 16
20.07.2019 13:00:00 27,8 0,6 15 8 - - SSW 1017,5 16
20.07.2019 12:00:00 26,7 4,4 9 5 - - SW 1018,0 16
20.07.2019 11:00:00 25,0 5,0 9 5 - - SE 1018,0 16
20.07.2019 10:00:00 23,3 5,0 5 3 - - - 1018,2 16
20.07.2019 09:00:00 21,7 5,0 13 7 - - NE 1018,4 16
20.07.2019 08:00:00 16,7 3,9 8 4 - - NE 1018,3 16
20.07.2019 07:00:00 12,8 2,8 9 5 - - N 1018,0 16
20.07.2019 06:00:00 9,4 2,8 9 5 - - N 1017,7 16
20.07.2019 05:00:00 10,0 3,3 9 5 - - N 1017,4 16
20.07.2019 04:00:00 10,6 4,4 8 4 - - N 1017,0 16
20.07.2019 03:00:00 14,4 5,0 5 3 - - NNW 1016,4 16
20.07.2019 02:00:00 16,1 3,9 8 4 - - N 1016,4 16
20.07.2019 01:00:00 16,1 5,6 0 0 - - N 1016,3 16
20.07.2019 00:00:00 16,7 5,0 8 4 - - ESE 1016,0 16
19.07.2019 23:00:00 21,1 6,1 9 5 - - SW 1015,6 16
19.07.2019 22:00:00 20,6 3,3 8 4 - - S 1015,4 16
19.07.2019 21:00:00 21,7 3,9 9 5 - - S 1014,9 16
19.07.2019 20:00:00 24,4 1,7 13 7 - - S 1014,8 16
19.07.2019 19:00:00 25,6 1,7 15 8 - - SW 1015,0 16
19.07.2019 18:00:00 25,6 2,2 9 5 - - SSW 1015,1 16
19.07.2019 17:00:00 25,6 2,8 13 7 - - SW 1015,5 16
19.07.2019 16:00:00 25,0 2,8 11 6 - - - 1015,8 16
19.07.2019 15:00:00 24,4 2,2 0 0 - - N 1015,9 16
19.07.2019 14:00:00 25,0 2,2 13 7 - - SW 1016,1 16
19.07.2019 13:00:00 24,4 2,2 13 7 - - SW 1016,3 16
19.07.2019 12:00:00 23,3 1,1 9 5 - - - 1016,5 16
19.07.2019 11:00:00 23,3 2,2 11 6 - - NE 1016,6 16
19.07.2019 10:00:00 21,7 2,2 13 7 - - NE 1016,4 16
19.07.2019 09:00:00 20,6 2,8 15 8 - - N 1016,2 16
19.07.2019 08:00:00 18,9 3,3 21 11 - - NW 1015,7 16
19.07.2019 07:00:00 15,0 5,6 11 6 - - W 1015,3 16
19.07.2019 06:00:00 13,3 5,0 15 8 - - W 1014,6 16
19.07.2019 05:00:00 13,9 4,4 15 8 - - W 1014,2 16
19.07.2019 04:00:00 13,9 3,9 11 6 - - W 1013,7 16
19.07.2019 03:00:00 13,9 3,9 15 8 - - WSW 1013,1 16
19.07.2019 02:00:00 14,4 4,4 15 8 - - W 1012,9 16
19.07.2019 01:00:00 15,6 3,9 15 8 - - W 1012,7 16
19.07.2019 00:00:00 17,2 1,1 16 9 - - W 1012,3 16
18.07.2019 23:00:00 16,7 0,6 13 7 - - NW 1012,3 16
18.07.2019 22:00:00 18,3 0,6 16 9 - - WNW 1012,0 16
18.07.2019 21:00:00 20,6 0,0 26 14 - - NW 1011,3 16
18.07.2019 20:00:00 22,8 0,0 28 15 - - WNW 1011,2 16
18.07.2019 19:00:00 25,0 0,6 26 14 - - WNW 1010,7 16
18.07.2019 18:00:00 26,7 2,2 26 14 - - WSW 1010,6 16
18.07.2019 17:00:00 26,7 3,9 31 17 48 26 SW 1010,3 16
18.07.2019 16:00:00 27,2 3,3 21 11 - - WSW 1010,6 16
18.07.2019 15:00:00 26,7 2,8 18 10 - - WSW 1010,7 16
18.07.2019 14:00:00 26,7 5,6 22 12 - - WSW 1011,1 16
18.07.2019 13:00:00 26,1 4,4 15 8 - - WSW 1011,4 16
18.07.2019 12:00:00 24,4 3,3 22 12 - - WSW 1011,4 16
18.07.2019 11:00:00 24,4 2,8 28 15 - - W 1010,9 16
18.07.2019 10:00:00 22,8 3,9 26 14 - - W 1011,3 16
18.07.2019 09:00:00 22,2 5,6 28 15 - - WNW 1011,0 16
18.07.2019 08:00:00 20,0 7,8 18 10 - - WSW 1010,5 16
18.07.2019 07:00:00 18,9 7,2 11 6 - - SSW 1010,1 16
18.07.2019 06:00:00 18,3 7,2 18 10 - - W 1009,3 16
18.07.2019 05:00:00 18,3 10,6 21 11 - - WSW 1008,9 16
18.07.2019 04:00:00 19,4 10,6 16 9 - - SW 1008,5 16
18.07.2019 03:00:00 18,9 10,6 11 6 - - SW 1008,4 16
18.07.2019 02:00:00 19,4 10,6 18 10 - - SSW 1008,3 16
18.07.2019 01:00:00 20,6 10,0 18 10 - - W 1008,2 16
18.07.2019 00:00:00 21,1 9,4 15 8 - - S 1008,1 16
17.07.2019 23:00:00 22,2 10,0 29 16 - - W 1007,9 16
17.07.2019 22:00:00 22,8 10,6 26 14 - - WSW 1008,3 16
17.07.2019 21:00:00 23,9 12,2 16 9 - - SW 1008,0 16
17.07.2019 20:00:00 26,1 11,1 18 10 - - W 1007,8 16
17.07.2019 19:00:00 27,8 9,4 13 7 - - W 1007,7 16
17.07.2019 18:00:00 27,8 9,4 13 7 - - SSW 1008,1 16
17.07.2019 17:00:00 28,3 9,4 21 11 - - SSW 1008,4 16
17.07.2019 16:00:00 27,2 9,4 15 8 - - S 1009,0 16
17.07.2019 15:00:00 27,2 8,9 16 9 - - SSW 1009,5 16
17.07.2019 14:00:00 26,1 8,9 24 13 - - SW 1009,7 16
17.07.2019 13:00:00 26,7 8,9 22 12 - - SSW 1010,1 16
17.07.2019 12:00:00 23,3 8,3 21 11 - - SW 1010,0 16
17.07.2019 11:00:00 22,8 8,9 28 15 - - SW 1010,0 16
17.07.2019 10:00:00 22,2 10,0 21 11 - - WSW 1009,8 16
17.07.2019 09:00:00 21,7 10,6 18 10 - - SSW 1009,9 16
17.07.2019 08:00:00 20,6 11,1 18 10 - - SSW 1009,5 16
17.07.2019 07:00:00 20,0 11,1 13 7 - - SSW 1009,5 16
17.07.2019 06:00:00 19,4 10,0 5 3 - - S 1009,1 16
17.07.2019 05:00:00 18,9 10,0 8 4 - - S 1009,4 16
17.07.2019 04:00:00 19,4 10,0 13 7 - - WSW 1009,4 16
17.07.2019 03:00:00 18,9 10,0 9 5 - - WSW 1009,5 16
17.07.2019 02:00:00 20,0 11,7 11 6 - - SSW 1009,6 16
17.07.2019 01:00:00 21,1 10,6 8 4 - - SW 1009,4 16
17.07.2019 00:00:00 20,6 11,1 5 3 - - NW 1009,8 16
16.07.2019 23:00:00 21,7 11,1 13 7 - - W 1009,9 16
16.07.2019 22:00:00 24,4 10,0 15 8 - - SW 1009,7 16
16.07.2019 21:00:00 26,1 9,4 11 6 - - SW 1009,9 16
16.07.2019 20:00:00 27,8 8,3 13 7 - - SW 1010,1 16
16.07.2019 19:00:00 28,3 9,4 13 7 - - WSW 1010,2 16
16.07.2019 18:00:00 29,4 8,3 13 7 - - WSW 1010,4 16
16.07.2019 17:00:00 29,4 8,9 9 5 - - - 1010,6 16
16.07.2019 16:00:00 27,8 10,0 13 7 - - NNW 1011,2 16
16.07.2019 15:00:00 28,9 10,0 9 5 - - - 1011,8 16
16.07.2019 14:00:00 27,8 10,0 11 6 - - - 1012,4 16
16.07.2019 13:00:00 26,1 10,0 15 8 - - SSW 1012,9 16
16.07.2019 12:00:00 25,0 20,0 8 4 - - NW 1013,3 16
16.07.2019 11:00:00 24,4 10,6 15 8 - - SW 1013,7 16
16.07.2019 10:00:00 23,3 10,0 11 6 - - NW 1014,0 16
16.07.2019 09:00:00 21,7 10,0 8 4 - - WNW 1014,3 16
16.07.2019 08:00:00 20,0 10,6 0 0 - - N 1014,1 16
16.07.2019 07:00:00 17,8 11,7 0 0 - - N 1014,0 16
16.07.2019 06:00:00 15,6 11,1 0 0 - - N 1013,6 16
16.07.2019 05:00:00 15,0 10,0 0 0 - - N 1013,4 16
16.07.2019 04:00:00 16,1 10,0 9 5 - - W 1013,2 16
16.07.2019 03:00:00 16,7 10,6 0 0 - - N 1013,2 16
16.07.2019 02:00:00 18,3 11,1 9 5 - - SW 1013,5 16
16.07.2019 01:00:00 19,4 11,7 9 5 - - WSW 1013,5 16
16.07.2019 00:00:00 20,0 11,7 9 5 - - SW 1013,5 16
15.07.2019 23:00:00 21,7 12,2 11 6 - - SW 1013,2 16
15.07.2019 22:00:00 23,3 10,6 11 6 - - SSW 1013,2 16
15.07.2019 21:00:00 22,8 12,2 13 7 - - SE 1013,3 16
15.07.2019 20:00:00 25,0 11,1 13 7 - - SE 1013,5 16
15.07.2019 19:00:00 25,0 10,0 15 8 - - SSE 1013,6 16
15.07.2019 18:00:00 26,1 9,4 15 8 - - S 1013,9 16
15.07.2019 17:00:00 26,7 8,9 13 7 - - S 1014,1 16

tt = temperature
td = dewpoint
ff = wind speed
fx = gusts
dd = wind direction
ppp = reduced air pressure
vv = visibility

Next stations